Weather in Novoselki

Russia / Ulyanovsk Oblast     53°54′25″N   49°46′21″E
temp.,
°C
wind,
m/s
gust,
m/s
humid.,
%
clouds,
%
prec.,
mm/h
press.,
hPa
HPBL,
m
24 october, sun
sun2401:00+7ssw3487100 2.1 1012202
04:00+7wnw4583100 3.4 1011823
07:00+7ssw378491 0.9 1010263
10:00+7w59730 1.4 1011684
13:00+9w68585 0.0 10121169
16:00+8w585662 0.0 10131472
19:00+6wsw386828 0.0 1014178
22:00+6wsw2569100 0.0 1014268
25 october, mon
mon2501:00+5ssw3571100 0.0 1013171
04:00+5sw3680100 0.3 1013220
07:00+3w4796100 0.9 1014465
10:00+3nw4898100 2.0 1015527
13:00+4nw6883100 0.8 1017962
16:00+2nnw71185100 0.9 1020748
19:00+2nnw6107089 0.0 1023832
22:000nnw487446 0.0 1025334
26 october, tue
tue2601:00−1nw368123 0.0 1027152
04:00−1w248032 0.0 102799
07:00−1wsw368090 0.0 1027155
10:00+1sw6106281 0.0 1027504
13:00+4sw71050100 0.0 1025757
16:00+5sw7115128 0.0 1023709
19:00+3wsw5126423 0.0 1024290
22:00+2wsw5107251 0.0 1024239
27 october, wed
wed2701:00+1sw497896 0.0 1024176
04:000sw5978100 0.0 1023183
07:000sw5107872 0.0 1023208
10:00+3sw6106631 0.0 1023370
13:00+7wsw7115058 0.0 1022620
16:00+8sw6124810 0.0 1021581
19:00+5sw714555 0.0 1021374
22:00+4sw7145797 0.0 1020376
28 october, thu
thu2801:00+3sw61359100 0.0 1019358
04:00+3sw71357100 0.0 1018386
07:00+3sw71356100 0.0 1017492
10:00+2wsw61297100 2.2 1018561
13:00+5wsw6108498 0.3 1018687
16:00+6wsw5107498 0.3 1018642
19:00+6wsw4979100 0.0 1019339
22:00+5wsw5981100 0.0 1019258